Location: Unspecified
(0.0000°N, 0.0000°E)
Time: 05:31:20
(UTC+00:00)

KAITUO 1B - Pass Details

Date: 10 July 2020
Orbit: 493 x 515 km, 97.4° (Epoch: 13 August)

Event Time Altitude Azimuth Distance (km) Brightness Sun altitude
Rises 18:24:50 0° 185° (S) 2,599 ? -4.5°
Reaches altitude 10° 18:27:04 10° 195° (SSW) 1,717 ? -5.0°
Maximum altitude 18:30:22 31° 259° (W) 901 ? -5.8°
Drops below altitude 10° 18:33:41 10° 322° (NW) 1,720 ? -6.5°
Sets 18:35:56 0° 333° (NNW) 2,606 ? -7.0°
